Location: De Har
(53.3413°N, 6.6858°E)
Time: 20:54:24
(UTC+00:00)

Cosmos 2322 Rocket - Pass Details

Date: 22 April 2026
Orbit: 832 x 850 km, 71.0° (Epoch: 21 May)

Event Time Altitude Azimuth Distance (km) Brightness Sun altitude
Rises 02:42:30 0° 323° (NW) 3,397 5.4 -12.9°
Reaches altitude 10° 02:45:10 10° 314° (NW) 2,461 4.6 -12.6°
Maximum altitude 02:50:05 32° 253° (WSW) 1,409 2.9 -12.1°
Drops below altitude 10° 02:55:00 10° 192° (SSW) 2,457 4.2 -11.5°
Enters shadow 02:56:35 - 186° (S) 3,000 4.6 -11.3°
